Regional Weather Roundup
Issued by NWS Kansas City/Pleasant Hill, MO

Home | Current Version | Previous Version | Text Only | Print | Product List | Glossary On
Versions: 1 2 3 4 5 6 7 8 9 10 11 12 13 14 15 16 17 18 19 20 21 22 23 24 25 26 27 28 29 30 31 32 33 34 35 36 37 38 39 40 41 42 43 44 45 46 47 48 49 50
000
ASUS43 KEAX 042304
RWREAX

WEATHER ROUNDUP FOR EASTERN KANSAS AND NORTHWEST MISSOURI
NATIONAL WEATHER SERVICE KANSAS CITY/PLEASANT HILL MO
500 PM CST WED MAR 04 2015

KSZ040-057-103>105-MOZ028-029-037-043-050000-
...KANSAS CITY METROPOLITAN AREA...

CITY           SKY/WX    TMP DP  RH WIND       PRES   REMARKS
K.C. INTL      NOT AVBL
K.C. DOWNTOWN  NOT AVBL
LEES SUMMIT    NOT AVBL
OLATHE - IXD   NOT AVBL
OLATHE - OJC   NOT AVBL

$$

MOZ001>008-011>017-020>025-030>033-038>040-044>046-053-054-050000-
...NORTHERN AND CENTRAL MISSOURI...

CITY           SKY/WX    TMP DP  RH WIND       PRES   REMARKS
ST. JOSEPH     NOT AVBL
MOSBY          CLOUDY    30   3  31 N13       30.28F WCI  20
WHITEMAN AFB   NOT AVBL
CLINTON        PTSUNNY   28  10  47 N13       30.28F WCI  18
SEDALIA        NOT AVBL
WARSAW         NOT AVBL
MARSHALL       CLOUDY    28   7  40 N17       30.30  WCI  16
CHILLICOTHE      N/A     29   7  39 N6        30.28F WCI  23
MOBERLY        MOSUNNY   27   1  33 N12       30.29  WCI  16
KIRKSVILLE     NOT AVBL

$$

MOZ041-047>049-056>058-063>065-088>090-097-050000-
...EASTERN AND SOUTHERN MISSOURI...

CITY           SKY/WX    TMP DP  RH WIND       PRES   REMARKS
ST. LOUIS INTL NOT AVBL
BRANSON        LGT SNOW  23  19  86 NE7       30.20R WCI  15

$$

IAZ060-094-KSZ022-034>040-054-083-096-NEZ052-066-093-050000-
...KANSAS...SOUTHEAST NEBRASKA AND IOWA...

CITY           SKY/WX    TMP DP  RH WIND       PRES   REMARKS
TOPEKA         NOT AVBL

$$



USA.gov is the U.S. government's official web portal to all federal, state and local government web resources and services.